Print

CHIHRRCWA 000
TTAA00 KDVN 021204
HOURLY WEATHER ROUNDUP
NATIONAL WEATHER SERVICE QUAD CITIES IA IL
700 AM CDT TUE SEP 02 2014

Note: "Fair" indicates few or no clouds below 12,000 feet with no
significant weather and/or obstructions to visibility.

* - These stations are not NWS stations...and not subject to NWS
quality control.  Some stations do not report weather such as fog.

...NORTHEAST IOWA..................................................

  
CITY           SKY/WX    TMP DP  RH WIND       PRES   REMARKS
DECORAH *      RAIN      59  57  94 NW6G13    29.93R                  
WATERLOO       LGT RAIN  59  57  93 MISG      29.91R                  
OELWEIN *      CLOUDY    61  59  94 NW8       29.95R                  
INDEPENDENCE * NOT AVBL                                               
DUBUQUE        CLOUDY    60  59  96 CALM      29.90R                  

...SOUTHWEST AND SOUTH CENTRAL WISCONSIN...........................

  
CITY           SKY/WX    TMP DP  RH WIND       PRES   REMARKS
PRAIRIE DU CHI RAIN      61  60  95 NW7       29.92R                  
BOSCOBEL       FOG       59  58  96 CALM      29.89R VSB<1/4          
LONE ROCK      FOG       61  57  87 CALM      29.90R VSB 1/4          
MINERAL POINT* PTCLDY    61  59  94 CALM      29.91R                  
MONROE *       CLEAR     64  59  82 W5        29.89S                  
JANESVILLE *   FOG       59  57  94 CALM      29.88R VSB 1/4          

...EAST CENTRAL IOWA...............................................

  
CITY           SKY/WX    TMP DP  RH WIND       PRES   REMARKS
MARSHALLTOWN   MOCLDY    61  59  93 N7        29.92R                  
NEWTON *         N/A     61  59  94 NW5       29.93R                  
VINTON *       CLOUDY    63  60  91 N3        29.91R                  
CEDAR RAPIDS   FAIR      61  60  97 NW6       29.90R                  
IOWA CITY      PTCLDY    60  59  96 CALM      29.91R                  
MONTICELLO *   CLOUDY    61  61 100 W5        29.90R                  
CLINTON *      PTCLDY    63  59  88 W5        29.92R                  
DAVENPORT      PTCLDY    60  59  96 NW3       29.90R FOG              

...NORTHWEST ILLINOIS..............................................

  
CITY           SKY/WX    TMP DP  RH WIND       PRES   REMARKS
FREEPORT *     PTCLDY    57  56  96 SW3       29.92R FOG              
ROCKFORD       FOG       61  59  93 CALM      29.90F VSB 1/8          
SAVANNA *      FOG       61  60  95 CALM      29.89R VSB 1/2          
STERLING/R.F.* CLOUDY    61  57  88 CALM      29.89R VSB<1/4          
ROCHELLE *     FOG       61  60  97 CALM      29.90R VSB<1/4          
MOLINE         FOG       61  60  97 CALM      29.89R VSB 1/4          
PERU *         MOCLDY    67  66  97 CALM      29.89R FOG              

...SOUTHEAST IOWA AND NORTHEAST MISSOURI...........................

  
CITY           SKY/WX    TMP DP  RH WIND       PRES   REMARKS
KNOXVILLE *    CLEAR     61  59  94 NW3       29.92R                  
OTTUMWA        PTCLDY    62  61  96 NW8       29.91S                  
FAIRFIELD *    FOG       61  61 100 CALM      29.91R VSB<1/4          
WASHINGTON *   FOG       59  59 100 CALM      29.90R VSB<1/4          
MT PLEASANT *  FOG       62  61  97 CALM      29.90R VSB 1            
BURLINGTON     FOG       65  64  97 NW3       29.89R VSB 1            
KIRKSVILLE     FOG       64  64 100 SW3       29.93R VSB<1/4          

...WESTERN ILLINOIS................................................

  
CITY           SKY/WX    TMP DP  RH WIND       PRES   REMARKS
MACOMB *       CLOUDY    70  69  98 CALM      29.92R                  
GALESBURG *    FOG       65  65 100 CALM      29.90R VSB 1/4          
PEORIA         LGT RAIN  72  68  87 SW6       29.90R FOG              
QUINCY         CLOUDY    69  68  96 S5        29.91R                  

END...
  

USA.gov is the U.S. government's official web portal to all federal, state and local government web resources and services.